EW4221 Weather Reports


Display with metric or nautical units.
time (UTC)temp
F
wind
direction
speed
MPH
gust
MPH
rain 1hr
in
rain 24hr
in
rain mn
in
humidity
%
barometer
mb
20260502194507 45 228 4.0 10.0 0.00 0.10 0.02 52 1012.7
20260502193006 46 213 6.0 11.0 0.00 0.10 0.02 52 1012.7
20260502191505 46 162 2.0 7.0 0.00 0.10 0.02 53 1013.1
20260502190007 45 250 1.0 4.0 0.00 0.10 0.02 54 1013.3
20260502184509 45 240 2.0 5.0 0.00 0.10 0.02 54 1013.3
20260502183006 45 313 1.0 8.0 0.00 0.10 0.02 56 1013.3
20260502181503 44 23 5.0 9.0 0.00 0.10 0.02 55 1013.3
20260502163101 45 315 4.0 12.0 0.00 0.10 0.02 48 1013.4
20260502161559 44 293 7.0 11.0 0.00 0.10 0.02 48 1013.5
20260502151611 44 339 7.0 13.0 0.00 0.10 0.02 50 1013.6
20260502123013 38 339 6.0 12.0 0.00 0.10 0.02 82 1013.9
20260502121514 37 323 4.0 11.0 0.00 0.10 0.02 84 1013.9
20260502114507 36 316 3.0 9.0 0.00 0.10 0.02 88 1013.9
20260502113005 35 329 5.0 15.0 0.00 0.10 0.02 88 1014.0
20260502111502 35 296 3.0 5.0 0.00 0.10 0.02 90 1013.9
20260502110100 34 248 2.0 7.0 0.00 0.10 0.02 90 1013.7
20260502104608 34 322 1.0 7.0 0.00 0.10 0.02 90 1013.5
20260502103055 34 271 1.0 3.0 0.00 0.10 0.02 91 1013.4
20260502101606 35 267 1.0 5.0 0.00 0.10 0.02 90 1013.0
20260502071530 38 266 2.0 7.0 0.00 0.10 0.02 92 1012.1
20260502070040 38 267 2.0 6.0 0.00 0.10 0.02 93 1012.2
20260502064525 38 294 2.0 7.0 0.00 0.10 0.02 93 1012.4
20260502063031 39 300 1.0 4.0 0.00 0.10 0.02 93 1012.2
20260502061524 39 281 1.0 3.0 0.00 0.10 0.02 93 1012.3
20260502060035 39 339 2.0 3.0 0.01 0.10 0.02 93 1012.2
20260502054532 39 290 1.0 4.0 0.01 0.10 0.02 93 1012.3
20260502053021 39 341 3.0 5.0 0.02 0.10 0.02 93 1012.2
20260502051520 39 9 3.0 10.0 0.02 0.10 0.02 92 1012.3
20260502050022 39 19 6.0 12.0 0.01 0.09 0.01 92 1012.2
20260502044516 40 314 1.0 9.0 0.01 0.09 0.01 92 1012.2
20260502043013 40 360 3.0 10.0 0.00 0.08 0.00 91 1012.4
20260502041521 40 329 5.0 9.0 0.00 0.08 0.00 91 1012.4
20260502040012 40 329 2.0 13.0 0.00 0.08 0.00 91 1012.0
20260502034506 41 327 3.0 11.0 0.00 0.08 0.08 91 1011.9
20260502033006 41 264 2.0 9.0 0.00 0.08 0.08 92 1011.9
20260502031505 41 259 4.0 8.0 0.00 0.08 0.08 92 1011.8
20260502030004 41 242 2.0 7.0 0.00 0.08 0.08 92 1011.7
20260502024505 41 272 2.0 7.0 0.00 0.08 0.08 92 1011.7
20260502023011 41 239 2.0 7.0 0.01 0.08 0.08 92 1011.8
20260502021504 42 250 4.0 9.0 0.02 0.08 0.08 92 1011.9
20260502020002 42 257 2.0 8.0 0.03 0.08 0.08 93 1011.9
20260502014502 42 315 1.0 4.0 0.03 0.08 0.08 94 1011.8
20260502013001 43 277 1.0 2.0 0.02 0.07 0.07 93 1011.5
20260502011608 43 277 1.0 3.0 0.01 0.06 0.06 93 1011.4
20260502010100 43 230 0.0 1.0 0.01 0.05 0.05 93 1011.3
20260502004559 43 206 0.0 1.0 0.01 0.05 0.05 93 1011.2
20260502003058 43 211 0.0 2.0 0.02 0.05 0.05 93 1011.2
20260502001603 43 221 1.0 3.0 0.02 0.05 0.05 92 1011.1
20260502000108 43 202 1.0 4.0 0.01 0.04 0.04 92 1011.0
20260501234557 43 188 1.0 3.0 0.01 0.04 0.04 92 1011.0
20260501233159 43 210 1.0 3.0 0.00 0.03 0.03 91 1010.9
20260501231625 44 225 1.0 3.0 0.01 0.03 0.03 90 1011.0
20260501230118 44 223 2.0 3.0 0.02 0.03 0.03 90 1011.0
20260501224602 44 192 0.0 3.0 0.02 0.03 0.03 89 1010.9
20260501223056 44 229 2.0 6.0 0.02 0.03 0.03 86 1011.0
20260501221608 44 202 4.0 8.0 0.02 0.02 0.02 84 1011.2
20260501220101 45 215 3.0 8.0 0.01 0.01 0.01 82 1011.1
20260501214552 46 219 1.0 10.0 0.01 0.02 0.01 80 1011.1
20260501213051 46 243 3.0 10.0 0.01 0.02 0.01 78 1010.9
20260501211551 46 188 3.0 8.0 0.00 0.01 0.00 77 1010.8
20260501210049 47 246 3.0 8.0 0.00 0.01 0.00 75 1010.8
20260501204548 47 154 5.0 9.0 0.00 0.01 0.00 72 1010.9
20260501203047 47 205 4.0 10.0 0.00 0.01 0.00 71 1011.0
20260501201547 47 230 3.0 12.0 0.00 0.01 0.00 72 1011.1
20260501200046 47 240 3.0 10.0 0.00 0.01 0.00 74 1011.1